sat.trackr.live / text

‹ back to catalog

STARLINK-4685

NORAD 53709 · 2022-107K

PAYLOAD ACTIVE UNKNOWN

§ Identity

Operator
Country
US
Launch date
2022-09-05
Launch site
AFETR
Launch vehicle
Mass (kg)
RCS (m²)

Purposes: comms

External: N2YO · Heavens-Above · Gunter

§ Orbital elements

Epoch: 2026-09-20T21:01:50.899584Z

Period
93.79 min
Inclination
53.1600°
Eccentricity
0.0001269
Mean motion
15.35394337 rev/d
Perigee alt
458.9 km
Apogee alt
460.6 km
Semi-major
6,837.9 km
B*
2.3544e-5
RAAN
82.1962°
Arg perigee
90.0332°
Mean anomaly
270.0816°
Rev number
22,408

§ Raw data

STARLINK-46851 53709U 22107K   26263.87628356  .00000441  00000+0  23544-4 0  99902 53709  53.1600  82.1962 0001269  90.0332 270.0816 15.35394337224087

JSON: /api/v1/satellites/53709 · /tle

For live sub-satellite position, see the globe view (requires WebGL).

§ Visibility from observer

Set your observer location to see the next 7 days of passes ≥ 10°. The values pass through the URL so the page stays shareable.

No JS? Fill the form by hand. The geolocation button needs JavaScript.